sat.trackr.live / text

‹ back to catalog

STARLINK-5133

NORAD 53980 · 2022-125S

PAYLOAD ACTIVE UNKNOWN

§ Identity

Operator
Country
US
Launch date
2022-10-05
Launch site
AFWTR
Launch vehicle
Mass (kg)
RCS (m²)

Purposes: comms

External: N2YO · Heavens-Above · Gunter

§ Orbital elements

Epoch: 2026-05-24T23:32:28.876128Z

Period
95.44 min
Inclination
53.2144°
Eccentricity
0.0000865
Mean motion
15.08841018 rev/d
Perigee alt
539.1 km
Apogee alt
540.3 km
Semi-major
6,917.9 km
B*
2.5569e-5
RAAN
236.3579°
Arg perigee
23.1456°
Mean anomaly
336.9575°
Rev number
20,091

§ Raw data

STARLINK-51331 53980U 22125S   26144.98088977  .00000119  00000+0  25569-4 0  99912 53980  53.2144 236.3579 0000865  23.1456 336.9575 15.08841018200917

JSON: /api/v1/satellites/53980 · /tle

For live sub-satellite position, see the globe view (requires WebGL).

§ Visibility from observer

Set your observer location to see the next 7 days of passes ≥ 10°. The values pass through the URL so the page stays shareable.

No JS? Fill the form by hand. The geolocation button needs JavaScript.